This demonstration page uses our WeatherBlox Daily Observations layout. Learn more.

Left ArrowRight Arrow

39.29038, -76.61219

Hourly Observations for August 15, 2020

Temp ( °F °C ) Dew Point ( °F °C ) Humidity (%) Winds ( mph kmh ) Pressure ( in mb ) Visibility ( mi km ) Precip ( " mm )
12:54 am 00:54 Cloudy 73 22.8 70 21.1 90 90 Calm 29.96 1015 10 16 0.00 0.00
1:54 am 01:54 Cloudy 72 22.2 70 21.1 94 94 Calm 29.96 1015 9 14 0.00 0.00
2:54 am 02:54 Cloudy 73 22.8 70 21.1 90 90 Calm 29.96 1015 10 16 0.00 0.00
3:54 am 03:54 Cloudy 73 22.8 70 21.1 90 90 Calm 29.96 1015 9 14 0.00 0.00
4:54 am 04:54 Cloudy 72 22.2 70 21.1 94 94 Calm 29.95 1014 8 13 0.00 0.00
5:54 am 05:54 Cloudy with Drizzle 73 22.8 68 20 84 84 NNE 3 6 29.95 1014 9 14 0.00 0.00
6:54 am 06:54 Cloudy with Light Rain 73 22.8 66 18.9 79 79 NE 7 11 29.96 1015 9 14 0.00 0.00
7:54 am 07:54 Cloudy 74 23.3 65 18.3 74 74 NE 6 9 29.98 1015 10 16 0.00 0.00
8:54 am 08:54 Cloudy 74 23.3 66 18.9 76 76 ENE 6 9 29.98 1015 10 16 0.00 0.00
9:54 am 09:54 Cloudy 77 25 64 17.8 64 64 E 8 13 29.99 1016 10 16 0.00 0.00
10:54 am 10:54 Cloudy 78 25.6 66 18.9 67 67 NE 12 19 29.98 1015 10 16 0.00 0.00
11:54 am 11:54 Cloudy 79 26.1 64 17.8 60 60 ENE 13 20 29.97 1015 10 16 0.00 0.00
12:54 pm 12:54 Cloudy 79 26.1 64 17.8 60 60 E 13 20 29.98 1015 10 16 0.00 0.00
1:54 pm 13:54 Cloudy 80 26.7 64 17.8 58 58 ENE 10 17 29.97 1015 10 16 0.00 0.00
2:54 pm 14:54 Cloudy 80 26.7 65 18.3 60 60 ENE 12 19 29.96 1014 10 16 0.00 0.00
3:54 pm 15:54 Cloudy 80 26.7 62 16.7 54 54 ENE 13 20 29.94 1014 10 16 0.00 0.00
4:54 pm 16:54 Cloudy 78 25.6 63 17.2 60 60 E 12 19 29.94 1014 10 16 0.00 0.00
5:54 pm 17:54 Cloudy with Light Rain 77 25 64 17.8 64 64 E 9 15 29.95 1014 10 16 0.00 0.00
6:54 pm 18:54 Cloudy with Light Rain 77 25 65 18.3 66 66 E 9 15 29.95 1014 10 16 0.00 0.00
7:54 pm 19:54 Cloudy with Light Rain 76 24.4 66 18.9 72 72 ENE 9 15 29.96 1015 10 16 0.00 0.00
8:54 pm 20:54 Cloudy with Light Rain 75 23.9 65 18.3 71 71 E 9 15 29.97 1015 10 16 0.00 0.00
9:54 pm 21:54 Cloudy with Light Rain 73 22.8 67 19.4 81 81 ENE 13 20 29.97 1015 7 11 0.00 0.00
10:44 pm 22:44 Cloudy 73 22.8 67 19.4 81 81 ENE 13 20 29.96 1015 7 11 0.00 0.00
10:54 pm 22:54 Cloudy 73 22.8 67 19.4 81 81 ENE 10 17 29.96 1015 7 11 0.00 0.00
11:54 pm 23:54 Cloudy with Light Rain 72 22.2 68 20 87 87 NE 10 17 29.97 1015 7 11 0.01 0.25

Powered by AerisWeather